Miscellaneous Local Product
Issued by NWS Hastings, NE

Home | Current Version | Previous Version | Text Only | Print | Product List | Glossary On
Versions: 1 2 3 4 5 6 7 8 9 10 11 12 13 14 15 16 17 18 19 20 21 22 23 24 25 26 27 28 29 30 31 32 33 34 35 36 37 38 39 40 41 42 43 44 45 46 47 48 49 50
000
AXUS43 KGID 060602
MISGRI

GID CWA HOURLY WEATHER ROUNDUP
NATIONAL WEATHER SERVICE HASTINGS NE
100 AM CDT MON JUL 06 2015

NOTE: "FAIR" INDICATES FEW OR NO CLOUDS BELOW 12,000 FEET WITH NO
SIGNIFICANT WEATHER AND/OR OBSTRUCTIONS TO VISIBILITY.

...SOUTH CENTRAL NEBRASKA...

CITY           SKY/WX    TMP DP  RH WIND       PRES   REMARKS
GRAND ISLAND   CLOUDY    84  63  49 W13       29.84R
HASTINGS       CLOUDY    84  63  49 S9        29.82R
KEARNEY        CLOUDY    79  64  61 N9        29.86R THUNDER
ORD            LGT RAIN  71  68  90 NW15      29.85F
YORK           CLOUDY    79  70  73 SE7       29.81R
AURORA         CLOUDY    82  64  54 S9        29.80R
LEXINGTON      LGT RAIN  76  66  71 CALM      29.81F
HOLDREGE       LGT RAIN  78  65  64 CALM      29.83R
HEBRON         CLOUDY    82  62  51 S12       29.81R

...NEBRASKA PANHANDLE...

CITY           SKY/WX    TMP DP  RH WIND       PRES   REMARKS
CHADRON        LGT RAIN  61  59  93 N13G23    30.05R
ALLIANCE       CLOUDY    63  61  93 N14       30.03R
SCOTTSBLUFF    CLOUDY    63  59  87 N16       30.06R
SIDNEY         CLOUDY    65  62  90 N13       30.03R

...WESTERN AND NORTH CENTRAL NEBRASKA...

CITY           SKY/WX    TMP DP  RH WIND       PRES   REMARKS
VALENTINE      HVY RAIN  65  64  97 W20G26    30.00R FOG
AINSWORTH      RAIN      65  65 100 NW17G24   29.92R
ONEILL         CLOUDY    69  69  98 NW14      29.87R
BROKEN BOW     RAIN      70  67  90 N18G24    29.91R
IMPERIAL       CLOUDY    71  65  81 N17G26    29.91R
NORTH PLATTE   LGT RAIN  70  66  87 N22G30    29.91R
MCCOOK         CLOUDY    77  64  64 W8        29.84R

...EASTERN NEBRASKA...

CITY           SKY/WX    TMP DP  RH WIND       PRES   REMARKS
NORFOLK        CLOUDY    81  72  74 S17G26    29.75S
SO SIOUX CITY  CLOUDY    80  71  74 SE13      29.74S
TEKAMAH        LGT RAIN  79  72  79 SE23G32   29.78S
COLUMBUS       CLOUDY    81  70  69 S12G18    29.75F
ALBION         CLOUDY    81  65  57 W13G21    29.81R
OMAHA EPPLEY   TSTM      79  75  87 E10       29.83R
OFFUTT AFB     CLOUDY    79  75  87 SE6       29.82S
MILLARD        CLOUDY    78  73  84 SE8       29.81S
LINCOLN        CLOUDY    82  71  69 S14       29.80R
NEBRASKA CITY  DRIZZLE   81  71  73 S15       29.83S
BEATRICE       CLOUDY    82  71  68 S14       29.81S
FALLS CITY     CLOUDY    83  73  72 S12G20    29.84R

...NORTHERN KANSAS...

CITY           SKY/WX    TMP DP  RH WIND       PRES   REMARKS
GOODLAND       CLOUDY    67  64  90 NW9       29.90R
HILL CITY      CLOUDY    85  62  46 S15       29.80S
NORTON         CLEAR     82  57  42 W9        29.84R
PHILLIPSBURG   CLEAR     88  63  42 S13G20    29.80R
SMITH CENTER   CLEAR     84  63  48 S16G23    29.82R
HAYS           CLOUDY    81  63  54 S17G24    29.83S
RUSSELL        CLOUDY    81  65  58 S21G28    29.82S
CONCORDIA      CLOUDY    84  66  54 S20G26    29.83R
SALINA         CLOUDY    86  70  58 S17G32    29.85R HX  90
TOPEKA         CLOUDY    83  74  74 S15G22    29.87S



USA.gov is the U.S. government's official web portal to all federal, state and local government web resources and services.